TAP11MG LPPT-LEMG

Flight info

Callsign TAP11MG
Flight time N/A
Altitude 33000
Route DUZOP1X DUZOP DCT MINTA DCT OSLEP DCT NAPES DCT ONUBA DCT PIMUR DCT SVL SVL1A
Aircraft A320/M-SDE3FGHIRWY/LB1

Departure

Time N/A
Airport Lisbon Humberto Delgado Airport (LPPT)

Arrival

Time 2026-05-03 20:57
Airport Málaga-Costa del Sol Airport (LEMG)
Time Latitude Longitude Altitude Speed Heading
2026-05-03 20:15 38.27764 -8.86449 19636 ft 397 kts 169°
2026-05-03 20:15 38.25093 -8.85507 20165 ft 400 kts 170°
2026-05-03 20:15 38.22401 -8.84562 20691 ft 403 kts 170°
2026-05-03 20:15 38.19689 -8.83609 21205 ft 405 kts 170°
2026-05-03 20:16 38.16962 -8.82649 21707 ft 408 kts 170°
2026-05-03 20:16 38.14216 -8.81685 22195 ft 411 kts 171°
2026-05-03 20:16 38.11444 -8.80713 22676 ft 414 kts 171°
2026-05-03 20:16 38.08659 -8.79734 23146 ft 417 kts 171°
2026-05-03 20:17 38.05855 -8.78745 23599 ft 419 kts 171°
2026-05-03 20:17 38.03042 -8.77726 23988 ft 424 kts 167°
2026-05-03 20:17 38.00357 -8.76046 24363 ft 439 kts 151°
2026-05-03 20:17 37.98114 -8.73394 24713 ft 454 kts 135°
2026-05-03 20:18 37.96136 -8.70244 25061 ft 458 kts 134°
2026-05-03 20:18 37.94167 -8.67050 25423 ft 460 kts 134°
2026-05-03 20:18 37.92201 -8.63844 25760 ft 462 kts 134°
2026-05-03 20:18 37.90221 -8.60614 26090 ft 465 kts 134°
2026-05-03 20:19 37.88225 -8.57376 26415 ft 467 kts 134°
2026-05-03 20:19 37.86215 -8.54133 26688 ft 470 kts 135°
2026-05-03 20:19 37.84184 -8.50868 26981 ft 473 kts 135°
2026-05-03 20:19 37.82139 -8.47589 27276 ft 475 kts 135°
2026-05-03 20:20 37.80108 -8.44339 27571 ft 478 kts 135°
2026-05-03 20:20 37.78040 -8.41038 27866 ft 480 kts 135°
2026-05-03 20:20 37.75961 -8.37718 28154 ft 482 kts 135°
2026-05-03 20:20 37.73875 -8.34379 28425 ft 484 kts 135°
2026-05-03 20:21 37.71782 -8.31030 28690 ft 486 kts 135°
2026-05-03 20:21 37.69683 -8.27677 28957 ft 488 kts 135°
2026-05-03 20:21 37.67563 -8.24301 29206 ft 490 kts 136°
2026-05-03 20:21 37.65462 -8.20958 29415 ft 492 kts 136°
2026-05-03 20:22 37.63328 -8.17566 29645 ft 494 kts 136°
2026-05-03 20:22 37.61182 -8.14159 29937 ft 495 kts 136°
2026-05-03 20:22 37.59041 -8.10760 30242 ft 494 kts 136°
2026-05-03 20:22 37.56902 -8.07368 30527 ft 493 kts 136°
2026-05-03 20:23 37.54790 -8.04022 30805 ft 492 kts 136°
2026-05-03 20:23 37.52662 -8.00654 31087 ft 492 kts 136°
2026-05-03 20:23 37.50532 -7.97284 31382 ft 491 kts 136°
2026-05-03 20:23 37.48405 -7.93921 31663 ft 490 kts 136°
2026-05-03 20:24 37.46280 -7.90561 31954 ft 490 kts 136°
2026-05-03 20:24 37.44155 -7.87206 32181 ft 489 kts 137°
2026-05-03 20:24 37.42029 -7.83856 32440 ft 489 kts 137°
2026-05-03 20:24 37.39904 -7.80516 32709 ft 489 kts 137°
2026-05-03 20:25 37.37780 -7.77185 32971 ft 489 kts 137°
2026-05-03 20:25 37.33520 -7.70509 33050 ft 488 kts 137°
2026-05-03 20:26 37.29307 -7.63905 33049 ft 487 kts 137°
2026-05-03 20:26 37.25068 -7.57272 33046 ft 487 kts 137°
2026-05-03 20:27 37.20808 -7.50634 33052 ft 489 kts 137°
2026-05-03 20:27 37.16834 -7.43628 33043 ft 504 kts 124°
2026-05-03 20:27 37.15502 -7.39516 33042 ft 514 kts 112°
2026-05-03 20:28 37.14770 -7.35096 33030 ft 523 kts 100°
2026-05-03 20:28 37.14686 -7.30522 33030 ft 529 kts 88°
2026-05-03 20:28 37.15257 -7.25950 33026 ft 532 kts 78°
2026-05-03 20:29 37.16986 -7.16915 33015 ft 533 kts 78°
2026-05-03 20:29 37.18699 -7.07862 33018 ft 533 kts 78°
2026-05-03 20:30 37.20404 -6.98866 33030 ft 533 kts 78°
2026-05-03 20:30 37.22110 -6.89786 33028 ft 533 kts 78°
2026-05-03 20:31 37.23802 -6.80703 33015 ft 533 kts 78°
2026-05-03 20:31 37.25490 -6.71640 33025 ft 533 kts 78°
2026-05-03 20:32 37.27158 -6.62637 33029 ft 533 kts 78°
2026-05-03 20:32 37.28823 -6.53566 33029 ft 532 kts 78°
2026-05-03 20:33 37.30485 -6.44504 33049 ft 532 kts 78°
2026-05-03 20:33 37.32141 -6.35435 33029 ft 532 kts 78°
2026-05-03 20:34 37.33794 -6.26369 33023 ft 532 kts 78°
2026-05-03 20:34 37.35433 -6.17292 33008 ft 532 kts 79°
2026-05-03 20:35 37.37064 -6.08200 32779 ft 533 kts 79°
2026-05-03 20:35 37.37728 -6.03690 32534 ft 530 kts 88°
2026-05-03 20:35 37.37654 -5.99108 32279 ft 521 kts 103°
2026-05-03 20:35 37.36785 -5.94737 32032 ft 510 kts 118°
2026-05-03 20:36 37.35216 -5.90812 31787 ft 497 kts 130°
2026-05-03 20:36 37.33336 -5.87159 31537 ft 498 kts 131°
2026-05-03 20:36 37.31446 -5.83509 31260 ft 499 kts 131°
2026-05-03 20:36 37.29548 -5.79856 31014 ft 499 kts 131°
2026-05-03 20:37 37.27647 -5.76200 30774 ft 500 kts 131°
2026-05-03 20:37 37.25750 -5.72544 30532 ft 500 kts 131°
2026-05-03 20:37 37.23850 -5.68877 30278 ft 501 kts 131°
2026-05-03 20:37 37.21971 -5.65250 30038 ft 503 kts 130°
2026-05-03 20:38 37.20063 -5.61573 29754 ft 503 kts 130°
2026-05-03 20:38 37.18152 -5.57894 29479 ft 503 kts 130°
2026-05-03 20:38 37.16243 -5.54224 29190 ft 500 kts 130°
2026-05-03 20:38 37.14353 -5.50593 28439 ft 496 kts 130°
2026-05-03 20:39 37.12474 -5.46985 27708 ft 491 kts 130°
2026-05-03 20:39 37.10619 -5.43425 26956 ft 486 kts 130°
2026-05-03 20:39 37.08772 -5.39892 26283 ft 481 kts 129°
2026-05-03 20:39 37.06944 -5.36404 25585 ft 478 kts 129°
2026-05-03 20:40 37.05125 -5.32936 24887 ft 474 kts 129°
2026-05-03 20:40 37.03317 -5.29492 24198 ft 471 kts 129°
2026-05-03 20:40 37.01526 -5.26081 23507 ft 467 kts 129°
2026-05-03 20:40 36.99747 -5.22690 22791 ft 463 kts 129°
2026-05-03 20:41 36.97992 -5.19351 22195 ft 456 kts 128°
2026-05-03 20:41 36.96255 -5.16057 21599 ft 451 kts 128°
2026-05-03 20:41 36.94536 -5.12893 21271 ft 438 kts 130°
2026-05-03 20:41 36.92759 -5.09856 20965 ft 428 kts 133°
2026-05-03 20:42 36.90942 -5.06919 20344 ft 426 kts 134°
2026-05-03 20:42 36.89096 -5.04020 19688 ft 426 kts 134°
2026-05-03 20:42 36.87245 -5.01128 19025 ft 426 kts 134°
2026-05-03 20:42 36.85404 -4.98221 18397 ft 426 kts 133°
2026-05-03 20:43 36.84174 -4.96257 17921 ft 425 kts 133°
2026-05-03 20:43 36.82414 -4.93413 17203 ft 411 kts 133°
2026-05-03 20:43 36.80709 -4.90631 16587 ft 396 kts 133°
2026-05-03 20:43 36.79070 -4.87946 16013 ft 381 kts 133°
2026-05-03 20:44 36.77488 -4.85364 15423 ft 369 kts 133°
2026-05-03 20:44 36.75948 -4.82861 14880 ft 358 kts 133°
2026-05-03 20:44 36.74446 -4.80431 14333 ft 349 kts 134°
2026-05-03 20:44 36.72976 -4.78065 13782 ft 341 kts 134°
2026-05-03 20:45 36.71543 -4.75760 13155 ft 334 kts 134°
2026-05-03 20:45 36.70128 -4.73486 12536 ft 327 kts 134°
2026-05-03 20:45 36.68746 -4.71264 11920 ft 322 kts 134°
2026-05-03 20:45 36.67404 -4.69106 11337 ft 316 kts 133°
2026-05-03 20:46 36.66063 -4.66944 10748 ft 316 kts 133°
2026-05-03 20:46 36.64700 -4.64762 10144 ft 323 kts 133°
2026-05-03 20:46 36.63308 -4.62535 9527 ft 328 kts 132°
2026-05-03 20:46 36.61905 -4.60288 8933 ft 329 kts 132°
2026-05-03 20:47 36.60504 -4.58037 8341 ft 327 kts 131°
2026-05-03 20:47 36.59139 -4.55839 7744 ft 315 kts 131°
2026-05-03 20:47 36.57815 -4.53711 7167 ft 306 kts 131°
2026-05-03 20:47 36.56525 -4.51643 6585 ft 298 kts 131°
2026-05-03 20:48 36.55447 -4.49480 5993 ft 294 kts 110°
2026-05-03 20:48 36.55235 -4.46986 5368 ft 291 kts 81°
2026-05-03 20:48 36.55959 -4.44684 4751 ft 284 kts 52°
2026-05-03 20:48 36.57389 -4.43070 4105 ft 275 kts 26°
2026-05-03 20:49 36.59063 -4.42004 3412 ft 273 kts 24°
2026-05-03 20:49 36.60858 -4.41373 2691 ft 265 kts 355°
2026-05-03 20:49 36.62562 -4.42061 1966 ft 255 kts 320°
2026-05-03 20:49 36.63660 -4.43608 1791 ft 226 kts 291°
2026-05-03 20:50 36.64190 -4.45366 1702 ft 214 kts 293°
2026-05-03 20:50 36.64638 -4.47109 2325 ft 205 kts 269°
2026-05-03 20:50 36.64316 -4.48772 2862 ft 200 kts 238°
2026-05-03 20:50 36.63316 -4.49937 3014 ft 198 kts 213°
2026-05-03 20:51 36.62092 -4.50763 3253 ft 210 kts 209°
2026-05-03 20:51 36.60654 -4.51410 3500 ft 229 kts 187°
2026-05-03 20:51 36.59070 -4.51060 3752 ft 238 kts 155°
2026-05-03 20:51 36.57705 -4.49860 3962 ft 243 kts 142°
2026-05-03 20:52 36.56526 -4.48347 4037 ft 244 kts 132°
2026-05-03 20:52 36.55479 -4.46743 3999 ft 233 kts 129°
2026-05-03 20:52 36.54813 -4.44963 3869 ft 225 kts 100°
2026-05-03 20:52 36.54859 -4.43108 3788 ft 212 kts 74°
2026-05-03 20:53 36.55508 -4.41540 3631 ft 199 kts 47°
2026-05-03 20:53 36.56573 -4.40491 3210 ft 195 kts 22°
2026-05-03 20:53 36.57868 -4.40098 2708 ft 190 kts 357°
2026-05-03 20:53 36.59140 -4.40320 2207 ft 180 kts 343°
2026-05-03 20:54 36.60334 -4.40662 1770 ft 171 kts 339°
2026-05-03 20:54 36.61993 -4.42225 1355 ft 139 kts 308°
2026-05-03 20:54 36.62628 -4.43112 1181 ft 136 kts 308°
2026-05-03 20:55 36.63253 -4.43985 1003 ft 134 kts 307°
2026-05-03 20:55 36.63873 -4.44853 825 ft 134 kts 307°
2026-05-03 20:55 36.64490 -4.45727 678 ft 134 kts 308°
2026-05-03 20:55 36.65111 -4.46599 478 ft 134 kts 309°
2026-05-03 20:56 36.65732 -4.47458 297 ft 137 kts 310°
2026-05-03 20:56 36.66372 -4.48354 108 ft 139 kts 312°
2026-05-03 20:56 36.66998 -4.49224 48 ft 121 kts 312°
2026-05-03 20:56 36.67437 -4.49835 49 ft 71 kts 311°
2026-05-03 20:57 36.67606 -4.50066 51 ft 20 kts 316°
2026-05-03 20:57 36.67716 -4.50172 51 ft 21 kts 330°
2026-05-03 20:57 36.67831 -4.50233 48 ft 9 kts 348°
2026-05-03 20:57 36.67883 -4.50219 49 ft 7 kts 50°
2026-05-03 20:58 36.67885 -4.50166 49 ft 10 kts 126°
2026-05-03 20:58 36.67830 -4.50091 49 ft 12 kts 132°
2026-05-03 20:58 36.67775 -4.50014 49 ft 12 kts 131°
2026-05-03 20:58 36.67724 -4.49939 49 ft 11 kts 125°
2026-05-03 20:59 36.67743 -4.49859 49 ft 10 kts 71°
2026-05-03 20:59 36.67714 -4.49786 49 ft 11 kts 131°
2026-05-03 20:59 36.67655 -4.49705 49 ft 13 kts 132°
2026-05-03 20:59 36.67609 -4.49610 48 ft 12 kts 100°
2026-05-03 21:00 36.67646 -4.49547 49 ft 8 kts 40°
2026-05-03 21:00 36.67673 -4.49518 49 ft 7 kts 41°
2026-05-03 21:00 36.67683 -4.49507 49 ft 0 kts 42°